STARLINK-3364, 51152

Orbit data source: Space-Track

STARLINK-3364, 51152 is a payload satellite owned by SpaceX/Seattle (US) in LEO that was launched on Wed, 19 Jan 2022 UTC via an FALCON 9 launch vehicle from the Air Force Eastern Test Range (AFETR). Payload-class satellites include a variety of spacecraft equipped with specific instruments for various scientific and technological missions. These include communications satellites like Starlink; space stations such as the ISS; scientific satellites like the Hubble; Earth observation satellites from companies like Planet Labs, Umbra, and HawkEye 360; GPS; miniature CubeSats for education and research; and military/defense satellites.

Loading next visibility...
Identifier
51152, 2022-005BA
Orbit
LEO
Country
Flag of USUS
Related business
Manufacturer
SpaceX/Seattle
Mission
Operational Commercial Communications
Bus & Motor
STARLINK, Unknown motor
Mass
297 kg wet, ~275 kg dry
Launch date (UTC)
2022-01-19 (4 years ago)
Launch vehicle
FALCON 9
Launch site
Air Force Eastern Test Range (AFETR)
Object type
Payload
Rocket body
Debris
Shape & HBR
Box + 1 Pan, 10.1 m
Radar Cross Section
13.562 m², Large (>1 m²)

Expand to show TLE details & history
Last TLE update: 17 hours ago

TLE from 17 hours ago
0 STARLINK-3364
1 51152U 22005BA  26094.26952751 -.00001574  00000-0 -80844-4 0  9998
2 51152  53.2181 193.9024 0001130  88.6572 271.4549 15.08827633232467
Epoch: 2026-04-04T06:28Z
TLE epoch observation values (Epoch: 2026-04-04T06:28:07.176Z)
Latitude
-0.00009°
Longitude
-95.71929°
Altitude
540.659 km
Speed
7.593 km/s
True Right ascension
12h 55m 36s
True Declination
0° 00' 00"
Sunlit
Object was in full shadow at epoch
Visualization orbit readout
Latitude
Unknown
Longitude
Unknown
Altitude
Unknown
Speed
Unknown
Apparent Right ascension
Unknown
Apparent Declination
Unknown
Sunlit
N/A
Visualization observer readout
Local Sidereal Time
05:42:32
Azimuth
Unknown
Elevation
Unknown
Doppler factor
Unknown
Orbital elements
Apogee altitude
540.808 km
Perigee altitude
539.244 km
Semi-major axis
6,918.163 km
Eccentricity
0.00011
Inclination
53.2181°
RAAN
193.9024°
Arg. of periapsis
88.6572°
True anomaly
271.44196°
Mean anomaly
271.4549°
Eccentric anomaly
271.44843°
Mean motion
3.77187 °/min
Orbital period
95.44 mins
BSTAR
-0.000080844
Loading maneuver chart data...
Computing Atmospheric mass density...

Documentation

Showing up to 5 results
|